Location: Cornospital
(48.0620°N, 3.3837°W)
Time: 20:47:50
(UTC+00:00)

Cosmos 1455 - Pass Details

Date: 17 June 2021
Orbit: 496 x 521 km, 82.5° (Epoch: 02 August)

Event Time Altitude Azimuth Distance (km) Brightness Sun altitude
Rises 23:13:29 0° 351° (N) 2,652 7.6 -17.2°
Reaches altitude 10° 23:15:39 10° 352° (N) 1,755 6.2 -17.3°
Maximum altitude 23:19:30 85° 80° (E) 522 2.1 -17.5°
Enters shadow 23:20:41 43° 166° (SSE) 731 2.4 -17.5°
